Olathe, KS

6:00 AM CDT on July 22, 2017 (GMT -0500)
Johnson County Executive

Weather History for KOJC - April, 2012

Change the Weather History Date:

Tuesday, April 3, 2012

  Actual Average Record
Temperature  
Mean Temperature 66 °F 51 °F  
Max Temperature 72 °F 62 °F 88 °F (2011)
Min Temperature 59 °F 41 °F 13 °F (1975)
Degree Days  
Heating Degree Days 0 14  
Month to date heating degree days 0 43  
Since 1 July heating degree days 3605 4560  
Cooling Degree Days 1 0  
Month to date cooling degree days 18 0  
Year to date cooling degree days 60 1  
Growing Degree Days 15 (Base 50)    
Moisture  
Dew Point 55 °F    
Average Humidity 70    
Maximum Humidity 78    
Minimum Humidity 61    
Precipitation  
Precipitation T in 0.08 in 1.85 in (1941)
Month to date precipitation T 0.25  
Year to date precipitation 4.77 5.57  
Sea Level Pressure  
Sea Level Pressure 29.83 in    
Wind  
Wind Speed 6 mph (NNW)    
Max Wind Speed 15 mph    
Max Gust Speed 18 mph    
Visibility 9 miles    
Events Rain    
T = Trace of Precipitation, MM = Missing Value Source: NWS Daily Summary

Daily Weather History Graph

Daily Weather History Graph

Search for Another Location

Airport or City:

Trip Planner

Search our weather history database for the weather conditions in past years. The results will help you decide how hot, cold, wet, or windy it might be!

Date:

Astronomy

Apr. 03, 2012 Rise Set
Actual Time 6:59 AM CDT 7:44 PM CDT
Civil Twilight 6:32 AM CDT 8:11 PM CDT
Nautical Twilight 6:00 AM CDT 8:43 PM CDT
Astronomical Twilight 5:28 AM CDT 9:16 PM CDT
Moon 4:31 PM CDT (4/3) 4:46 AM CDT (4/3)
Length of Visible Light 13h 39m
Length of Day
12h 45m
Waxing Gibbous, 87% of the Moon is Illuminated
Apr 3
Waxing Gibbous
Apr 6
Full
Apr 13
Last Quarter
Apr 21
New
Apr 29
First Quarter

Hourly Weather History & Observations

Time (CDT) Temp. Dew Point Humidity Pressure Visibility Wind Dir Wind Speed Gust Speed Precip Events Conditions
12:53 AM 66.0 °F 55.9 °F 70% 29.71 in 10.0 mi Calm Calm - N/A   Clear
1:53 AM 66.0 °F 55.0 °F 68% 29.74 in 10.0 mi SSW 5.8 mph - N/A   Clear
2:53 AM 66.9 °F 55.9 °F 68% 29.76 in 10.0 mi SW 6.9 mph - N/A   Clear
3:53 AM 66.0 °F 55.9 °F 70% 29.79 in 10.0 mi SW 8.1 mph - N/A   Partly Cloudy
4:53 AM 66.0 °F 55.0 °F 68% 29.78 in 10.0 mi SW 4.6 mph - N/A   Mostly Cloudy
5:53 AM 64.0 °F 55.0 °F 73% 29.80 in 10.0 mi SSW 4.6 mph - N/A   Partly Cloudy
7:53 AM 60.1 °F 53.1 °F 78% 29.85 in 10.0 mi North 9.2 mph - N/A   Clear
8:53 AM 60.1 °F 53.1 °F 78% 29.86 in 9.0 mi NNW 10.4 mph - N/A   Clear
9:53 AM 61.0 °F 54.0 °F 78% 29.85 in 8.0 mi North 6.9 mph - N/A   Clear
10:53 AM 63.0 °F 54.0 °F 72% 29.85 in 7.0 mi North 8.1 mph - N/A   Mostly Cloudy
11:34 AM 62.6 °F 55.4 °F 77% 29.89 in 7.0 mi South 3.5 mph - N/A   Mostly Cloudy
11:53 AM 63.0 °F 55.0 °F 75% 29.86 in 7.0 mi Calm Calm - N/A   Partly Cloudy
12:53 PM 68.0 °F 55.9 °F 65% 29.86 in 7.0 mi Calm Calm - N/A   Scattered Clouds
1:53 PM 70.0 °F 55.9 °F 61% 29.85 in 7.0 mi Calm Calm - N/A   Partly Cloudy
2:53 PM 69.1 °F 57.0 °F 65% 29.86 in 7.0 mi NNW 4.6 mph - 0.00 in Rain Light Rain
3:53 PM 68.0 °F 57.9 °F 70% 29.85 in 7.0 mi NW 6.9 mph - 0.00 in   Partly Cloudy
4:53 PM 69.1 °F 55.9 °F 63% 29.85 in 9.0 mi NNW 6.9 mph - N/A   Mostly Cloudy
5:53 PM 68.0 °F 55.0 °F 63% 29.85 in 9.0 mi NW 9.2 mph - N/A   Clear
6:53 PM 68.0 °F 55.0 °F 63% 29.83 in 10.0 mi North 9.2 mph - N/A   Clear
8:53 PM 63.0 °F 52.0 °F 67% 29.85 in 10.0 mi NNE 4.6 mph - N/A   Clear
10:53 PM 62.1 °F 54.0 °F 75% 29.83 in 10.0 mi East 5.8 mph - N/A   Clear
11:53 PM 60.1 °F 54.0 °F 80% 29.83 in 9.0 mi ENE 6.9 mph - N/A   Clear